Regional Weather Roundup
Issued by NWS Goodland, KS

Home | Current Version | Previous Version | Text Only | Print | Product List | Glossary On
Versions: 1 2 3 4 5 6 7 8 9 10 11 12 13 14 15 16 17 18 19 20 21 22 23 24 25 26 27 28 29 30 31 32 33 34 35 36 37 38 39 40 41 42 43 44 45 46 47 48 49 50
000
ASUS43 KGLD 171008
RWRGLD

GOODLAND FORECAST AREA HOURLY WEATHER ROUNDUP
NATIONAL WEATHER SERVICE GOODLAND KS
400 AM MDT THU AUG 17 2017

...OFFICIAL OBSERVATIONS...

CITY           SKY/WX    TMP DP  RH WIND       PRES   REMARKS
GOODLAND KS    CLEAR     54  52  93 SW6       30.10R
HILL CITY KS   CLEAR     59  58  96 W8        30.04R
IMPERIAL NEB   CLEAR     53  51  93 CALM      30.06F
MCCOOK NEB     CLEAR     58  57  97 W9        30.03S
AKRON CO       CLEAR     56  50  80 S9        30.13F
BURLINGTON CO  CLEAR     53  52  96 SW6       30.13S
LIMON CO       PTCLDY    52  51  97 CALM      30.18F
$$

...UNOFFICIAL OBSERVATIONS...

CITY           SKY/WX    TMP DP  RH WIND       PRES   REMARKS
LENORA KS        N/A     59  32  36 W7          N/A
NORTON KS      CLEAR     55  52  88 SW6       30.03
TRENTON NEB      N/A     56  32  40 CALM        N/A
KIT CARSON CO    N/A     58  54  88 CALM        N/A
YUMA CO        FAIR      50  50 100 SW8       30.11S
$$




USA.gov is the U.S. government's official web portal to all federal, state and local government web resources and services.